Content
SEND FEEDBACK

Daily
Averages
Monthly
Summary
United States of America

OTTO, NORTH CAROLINA


Home > North America > United States > North Carolina
Elevation: 2849 feet     Latitude: 35 04N     Longitude: 083 26W

WEATHER
 
SELECT A DAY
Number of Records: 448,807;   Date Range: 1/6/04 - 7/9/14
 
SHARE

PRINT THIS DATA

[ ← Previous Day ]
WEATHER ALMANAC - FEBRUARY 5, 2013
[ Next Day → ]
[ °C ]   °F
Weather ElementAverageHighLow
Temperature38.6 °F55.9 °F (4:15 pm)28 °F (11:55 pm)
Dewpoint30.5 °F36.3 °F (12:55 pm)26.2 °F (11:55 pm)
Humidity75.3 %93 % (11:15 pm)40 % (4:15 pm)
Barometer29.97 in30.03 in (10:35 pm)29.93 in (2:35 pm)
Wind Speed1.1 mph8.1 mph (1:55 pm)
Weather ElementAverage
Visibility10 mi
Wind DirectionENE (58.7 °)

Weather ElementTotal
Precipitation---
Heating Degree Days23.1 (Base 65)
Averaged from 71 records on February 5, 2013
WEATHER CONDITIONS BREAKOUT
WIND DIRECTION BREAKOUT
WEATHER BY HOUR - FEBRUARY 5, 2013
[ °C ]   °F
Local TimeTemperatureDewpointHumidityBarometerVisibilityWind DirectionWind SpeedGust SpeedPrecipitationEventsConditions
12:35 AM34.0 °F29.7 °F84 %29.96 in10.0 miCalmOvercast
12:55 AM32.2 °F28.8 °F87 %29.96 in10.0 miCalmOvercast
1:15 AM32.4 °F28.4 °F85 %29.96 in10.0 miCalmOvercast
1:35 AM32.0 °F28.6 °F87 %29.96 in10.0 miCalmOvercast
1:55 AM31.3 °F27.9 °F87 %29.95 in10.0 miCalmMostly Cloudy
2:15 AM30.7 °F27.5 °F88 %29.95 in10.0 miCalmScattered Clouds
2:35 AM30.6 °F27.5 °F88 %29.95 in10.0 miCalmMostly Cloudy
2:55 AM31.1 °F27.5 °F87 %29.95 in10.0 miCalmOvercast
3:15 AM30.9 °F27.5 °F87 %29.94 in10.0 miCalmOvercast
3:35 AM31.1 °F27.7 °F87 %29.94 in10.0 miCalmOvercast
3:55 AM30.9 °F27.5 °F87 %29.94 in10.0 miCalmMostly Cloudy
4:15 AM30.7 °F27.5 °F88 %29.94 in10.0 miCalmMostly Cloudy
4:35 AM31.1 °F28.0 °F88 %29.94 in10.0 miCalmOvercast
4:55 AM32.0 °F28.4 °F87 %29.95 in10.0 miCalmOvercast
5:15 AM32.0 °F28.9 °F88 %29.95 in10.0 miCalmOvercast
5:35 AM32.4 °F28.8 °F87 %29.95 in10.0 miCalmOvercast
5:55 AM32.5 °F28.4 °F85 %29.94 in10.0 miCalmOvercast
6:15 AM32.4 °F27.9 °F83 %29.95 in10.0 miCalmMostly Cloudy
6:35 AM32.4 °F28.8 °F87 %29.95 in10.0 miCalmOvercast
6:55 AM33.3 °F29.3 °F85 %29.96 in10.0 miCalmOvercast
7:15 AM33.8 °F29.5 °F84 %29.97 in10.0 miWSW (250°)3.5 mphLight Drizzle
7:35 AM33.8 °F29.5 °F84 %29.97 in10.0 miCalmOvercast
7:55 AM34.3 °F29.8 °F84 %29.97 in10.0 miCalmOvercast
8:15 AM34.7 °F29.8 °F82 %29.98 in10.0 miCalmOvercast
8:35 AM35.2 °F30.2 °F82 %29.97 in10.0 miCalmOvercast
8:55 AM36.0 °F30.4 °F80 %29.99 in10.0 miCalmOvercast
9:15 AM36.3 °F30.6 °F80 %29.98 in10.0 miCalmOvercast
9:35 AM37.9 °F30.4 °F74 %29.99 in10.0 miCalmOvercast
9:55 AM38.5 °F31.1 °F75 %29.99 in10.0 miCalmOvercast
10:15 AM38.7 °F31.5 °F75 %29.99 in10.0 miCalmOvercast
10:35 AM38.7 °F31.1 °F74 %30.00 in10.0 miCalmOvercast
10:55 AM38.8 °F30.7 °F73 %30.01 in10.0 miCalmOvercast
11:15 AM39.2 °F32.0 °F75 %30.01 in10.0 miWSW (250°)4.6 mphOvercast
11:35 AM40.1 °F32.5 °F74 %30.01 in10.0 miCalmOvercast
11:55 AM43.0 °F34.2 °F71 %30.01 in10.0 miCalmMostly Cloudy
12:15 PM45.1 °F34.7 °F67 %30.00 in10.0 miWSW (240°)4.6 mphMostly Cloudy
12:35 PM47.1 °F35.4 °F64 %29.99 in10.0 miCalmScattered Clouds
12:55 PM49.8 °F36.3 °F60 %29.98 in10.0 miNW (310°)3.5 mphClear
1:15 PM49.5 °F35.4 °F58 %29.97 in10.0 miCalmClear
1:35 PM51.3 °F34.7 °F53 %29.95 in10.0 miWest (260°)5.8 mphClear
1:55 PM52.3 °F34.0 °F50 %29.94 in10.0 miWSW (240°)8.1 mphClear
2:15 PM53.1 °F32.5 °F46 %29.94 in10.0 miCalmClear
2:35 PM53.4 °F34.3 °F48 %29.93 in10.0 miENE (60°)5.8 mphClear
2:55 PM54.3 °F34.0 °F46 %29.93 in10.0 miCalmClear
3:15 PM54.5 °F33.4 °F45 %29.93 in10.0 miNNE (20°)4.6 mphClear
3:35 PM55.0 °F32.5 °F43 %29.93 in10.0 miCalmClear
3:55 PM55.4 °F32.0 °F41 %29.93 in10.0 miCalmClear
4:15 PM55.9 °F31.6 °F40 %29.93 in10.0 miWSW (240°)3.5 mphClear
4:35 PM55.4 °F33.1 °F43 %29.93 in10.0 miNorth (350°)3.5 mphClear
4:55 PM55.6 °F31.8 °F41 %29.93 in10.0 miWNW (290°)3.5 mphClear
5:15 PM54.9 °F32.9 °F43 %29.94 in10.0 miWNW (290°)3.5 mphClear
5:35 PM52.5 °F33.6 °F49 %29.94 in10.0 miWest (270°)3.5 mphClear
5:55 PM49.3 °F32.0 °F51 %29.94 in10.0 miSW (230°)3.5 mphClear
6:15 PM45.5 °F33.4 °F63 %29.95 in10.0 miWSW (240°)4.6 mphClear
6:35 PM42.8 °F33.3 °F69 %29.95 in10.0 miSW (230°)4.6 mphClear
6:55 PM38.5 °F32.4 °F79 %29.96 in10.0 miSW (230°)4.6 mphClear
7:15 PM38.3 °F32.2 °F79 %29.97 in10.0 miCalmClear
7:35 PM36.5 °F32.0 °F84 %29.97 in10.0 miCalmClear
7:55 PM34.9 °F31.8 °F89 %29.98 in10.0 miCalmClear
8:15 PM33.1 °F30.0 °F89 %29.99 in10.0 miSouth (170°)4.6 mphClear
8:35 PM33.3 °F30.9 °F91 %29.99 in10.0 miCalmClear
8:55 PM32.5 °F29.7 °F89 %30.00 in10.0 miCalmClear
9:15 PM31.8 °F29.3 °F90 %30.01 in10.0 miCalmClear
9:35 PM31.8 °F29.7 °F92 %30.02 in10.0 miCalmClear
9:55 PM29.8 °F27.5 °F91 %30.02 in10.0 miCalmClear
10:15 PM29.8 °F27.9 °F92 %30.02 in10.0 miCalmClear
10:35 PM29.8 °F27.9 °F92 %30.03 in10.0 miCalmClear
10:55 PM29.3 °F27.3 °F92 %30.03 in10.0 miCalmClear
11:15 PM29.1 °F27.3 °F93 %30.03 in10.0 miCalmClear
11:35 PM28.6 °F26.8 °F93 %30.03 in10.0 miCalmClear
11:55 PM28.0 °F26.2 °F93 %30.03 in10.0 miCalmClear
Hourly data recorded from K1A5, located miles away from Otto, North Carolina







STORIES FROM OUR PARTNERS